Temperature
21 22 21 21 21 20 20 20 19 19 19 19 19 19 19 19 19 19 19 18 18 18 18 18 18 18 18 18 18 18 18 18 18 18 18 18 18 18 17 17 17 18 17
22 22 21 21 21 20 20 20 19 19 19 19 19 19 19 19 19 18 18 18 18 18 18 18 18 18 18 18 18 18 18 18 18 18 18 18 18 17 17 17 17 18 17
22 22 21 21 20 20 20 20 19 19 19 19 19 19 19 19 19 19 19 18 18 18 18 18 18 18 18 18 18 18 18 18 18 18 18 18 18 17 17 17 17 17 17
22 22 21 21 20 20 20 20 19 19 19 19 19 19 19 19 18 18 19 19 19 19 18 18 18 18 18 18 18 18 18 18 17 17 17 17 17 17 17 17 17 17 17
21 21 21 21 20 20 20 19 19 19 19 19 19 19 19 18 18 18 19 19 19 19 18 18 18 18 18 18 18 18 18 18 17 17 17 17 17 17 17 17 17 17 17
20 21 21 21 20 20 20 19 19 19 19 19 19 19 19 18 18 18 19 19 19 19 18 18 18 18 18 18 18 18 18 18 18 17 17 17 18 17 17 17 17 17 17
20 21 21 21 20 20 19 19 19 19 19 19 19 19 19 19 18 18 18 19 19 18 18 18 18 18 18 18 18 18 18 18 18 18 17 18 18 17 17 17 17 17 17
21 20 21 20 20 20 19 19 19 19 19 19 19 19 18 18 18 18 18 18 18 18 18 18 18 18 18 18 18 18 18 18 18 18 18 18 18 18 17 17 17 17 17
21 20 21 20 20 20 19 19 19 19 19 19 19 19 18 18 18 18 18 18 18 18 18 18 18 18 18 18 19 19 18 18 18 18 18 18 18 18 18 17 17 17 17
21 20 20 20 20 19 19 19 19 19 19 19 19 19 18 18 18 18 18 18 18 18 18 18 19 19 19 19 19 19 19 18 18 18 18 18 18 18 18 17 17 17 17
21 20 20 19 19 19 19 19 19 19 19 18 18 18 18 18 18 18 18 18 18 18 18 18 18 19 19 19 19 19 19 18 18 18 18 18 18 18 18 17 17 17 17
21 21 20 19 19 19 18 19 19 18 18 18 18 18 18 18 18 18 18 18 18 18 18 18 18 18 18 18 18 19 19 18 18 18 18 18 18 18 18 18 17 17 17
21 20 20 20 19 19 19 19 18 18 18 18 18 18 18 18 18 18 18 18 18 18 18 18 18 18 17 17 18 18 18 18 18 18 18 18 18 18 18 18 18 17 17
21 20 20 19 19 19 19 19 18 18 18 18 18 18 18 18 18 18 18 17 17 17 17 17 17 17 17 18 17 18 18 18 18 18 18 18 18 18 18 18 18 18 17
20 20 19 19 19 19 19 19 18 18 18 18 18 18 18 17 17 17 17 17 17 17 17 17 17 17 17 18 18 18 18 18 18 17 18 18 18 18 18 18 18 18 17
20 19 19 19 19 19 19 19 18 18 18 18 18 18 18 17 17 17 17 17 17 17 17 17 17 17 17 17 17 17 17 17 17 17 17 17 17 17 18 18 18 17 17
19 19 19 19 19 19 18 18 18 18 18 18 17 17 17 17 17 17 17 17 17 17 17 17 17 17 17 17 17 17 17 17 17 17 17 17 17 17 17 17 17 17 17
19 19 18 18 18 18 18 18 18 18 18 17 17 17 17 17 17 17 16 16 16 16 16 17 17 17 17 17 17 17 17 17 17 17 17 17 17 17 17 17 17 17 17
18 18 18 18 18 18 18 18 18 18 17 17 17 17 17 16 16 16 16 16 16 16 16 16 16 16 16 16 17 17 17 17 17 17 17 17 17 17 17 17 17 17 17
18 18 18 18 18 18 18 18 17 17 17 17 17 17 16 16 16 16 16 16 16 16 16 16 16 16 16 16 17 17 17 17 17 17 17 17 17 17 17 17 17 17 17
18 18 18 18 17 18 17 17 17 17 17 17 16 16 16 16 16 16 16 16 16 16 16 15 16 16 16 16 16 17 17 17 17 17 17 17 17 17 17 17 16 16 16
17 17 17 17 18 17 17 17 17 17 17 17 17 16 16 15 15 16 15 15 15 15 15 15 16 16 16 16 16 17 17 17 17 17 17 17 17 17 17 17 16 16 16
17 17 17 17 17 17 17 17 17 17 17 17 17 16 16 15 15 15 15 15 15 15 15 15 15 15 16 16 16 16 17 17 17 17 17 16 16 16 16 16 16 16 16
17 17 17 17 17 17 17 17 17 17 17 17 16 16 16 15 15 15 15 15 15 15 15 15 15 15 15 16 16 16 16 16 17 16 16 16 16 16 16 16 16 16 16
17 17 17 17 17 17 17 17 17 17 17 17 17 16 16 16 15 15 15 15 15 15 15 15 15 15 15 15 16 16 16 17 17 17 17 16 16 16 16 16 16 16 16
17 17 17 17 17 17 17 17 17 17 17 17 16 16 16 16 16 15 15 15 15 14 14 14 15 15 15 15 16 16 16 16 16 17 17 17 17 17 16 16 16 15 15
Wind_Speed
20 19 20 17 15 15 15 15 16 16 15 15 14 14 13 13 13 13 14 14 13 13 13 13 12 11 11 10 10 10 9 10 12 13 15 15 15 14 13 12 13 14 15
23 21 21 19 16 16 16 16 16 15 15 14 14 13 13 13 13 13 13 13 13 13 12 12 12 12 11 10 10 9 9 10 10 13 14 15 14 12 11 10 12 13 14
23 22 21 19 18 16 16 16 16 15 15 14 13 13 12 12 12 12 12 12 12 12 12 12 12 12 11 10 9 9 8 9 10 11 13 13 12 12 13 14 15 14 13
22 21 20 20 18 17 17 16 16 15 14 14 13 12 12 12 12 12 12 12 12 11 11 12 11 11 11 10 9 7 7 7 8 9 9 12 12 13 14 14 14 13 13
20 21 22 21 19 18 17 16 16 15 14 13 12 12 11 11 11 11 11 11 11 11 11 11 10 10 10 9 8 6 5 3 3 5 10 14 14 13 14 14 13 13 13
21 22 22 21 19 18 17 16 15 14 13 13 12 11 10 10 10 10 10 10 10 10 10 9 9 9 9 8 7 5 4 3 2 7 14 16 14 13 14 14 13 13 12
21 21 21 20 19 17 16 15 15 14 13 12 11 10 10 9 9 9 9 8 8 8 8 8 8 8 8 7 6 5 5 6 4 10 15 16 14 14 14 14 13 12 11
21 21 20 19 19 17 16 15 14 13 12 11 10 9 9 8 8 8 7 7 7 7 6 6 6 6 6 5 5 5 7 8 3 11 16 16 16 14 13 13 13 12 11
21 20 18 18 17 16 15 15 13 12 11 10 10 9 8 8 7 7 7 7 6 6 5 4 4 4 4 3 3 5 7 10 6 9 15 15 16 14 13 12 11 11 10
18 19 16 18 17 16 15 14 13 13 11 11 9 8 8 8 8 8 8 7 6 5 4 3 3 3 2 0 2 5 7 9 4 9 13 15 17 14 12 11 10 10 10
16 16 16 16 15 16 16 15 14 13 11 11 9 8 8 8 8 9 8 10 7 6 5 4 3 4 4 5 5 6 6 4 1 9 12 17 17 14 12 11 10 9 9
14 13 11 14 13 13 13 14 13 12 11 9 8 7 6 4 5 7 10 9 8 7 7 6 6 6 7 6 7 8 7 5 3 10 13 19 17 14 12 10 10 9 9
13 11 12 12 9 10 9 10 8 8 9 8 7 4 1 1 2 5 6 7 7 8 7 8 7 6 4 2 2 5 5 3 4 10 15 17 16 14 12 11 10 9 9
11 11 11 10 8 7 7 7 6 6 6 7 6 3 3 2 2 4 3 2 2 3 4 4 4 3 2 2 2 3 4 3 4 9 14 16 15 13 12 11 11 10 10
10 9 10 11 9 7 5 4 6 5 6 8 8 5 3 2 3 3 2 1 2 1 2 2 2 1 1 1 3 1 2 3 3 5 10 13 14 13 12 12 11 11 11
10 9 10 11 10 7 5 4 3 5 6 8 8 7 5 6 5 2 1 0 1 3 3 1 1 1 1 1 1 1 1 1 2 4 7 10 11 12 13 13 13 12 12
10 10 10 11 10 8 7 5 4 5 7 7 8 7 6 7 4 2 0 1 2 2 1 1 1 2 2 2 2 1 1 1 2 1 3 7 8 11 13 13 14 13 13
11 11 11 12 11 8 5 4 4 5 7 7 9 9 7 6 3 3 1 3 3 2 1 1 1 1 1 1 2 1 1 1 2 2 3 5 7 8 12 14 14 14 14
10 11 10 11 11 9 7 4 5 6 5 6 8 8 6 5 4 4 4 3 4 1 2 2 4 3 2 1 1 2 2 1 1 2 2 3 5 7 10 14 15 15 15
10 10 11 11 10 9 7 5 5 5 4 6 8 7 4 5 4 4 4 2 4 3 4 4 3 2 1 1 3 1 1 2 1 1 1 2 5 7 9 10 12 14 16
11 11 11 12 10 8 7 6 6 5 4 5 6 7 5 5 4 4 4 2 2 4 4 3 2 1 2 0 2 2 3 4 3 2 1 0 1 3 6 9 10 10 12
11 11 11 12 11 8 6 5 4 5 4 5 5 6 5 4 3 3 3 1 4 3 3 2 2 3 1 2 1 2 3 3 2 3 3 2 1 0 3 7 9 8 8
12 12 12 12 11 9 8 5 5 3 2 5 6 5 4 4 4 5 3 3 2 1 3 2 3 2 3 1 1 3 2 2 3 3 1 3 2 1 1 2 5 7 8
13 12 12 11 10 8 8 7 8 6 5 6 5 6 5 4 5 5 4 3 3 3 3 0 3 3 2 2 1 1 1 2 2 1 2 3 2 1 1 2 2 4 6
13 12 12 11 10 9 8 7 7 5 4 5 5 8 6 5 4 5 5 3 0 2 4 4 3 4 3 4 3 1 1 1 3 1 2 3 3 3 3 1 1 1 4
12 11 12 12 11 10 8 8 7 5 4 5 6 8 5 5 5 6 6 4 2 2 3 2 1 1 3 4 4 4 2 1 2 2 1 2 2 3 4 3 1 1 3
Wind_Direction
127 127 125 122 121 122 123 122 120 118 115 112 109 106 102 99 96 93 91 89 87 86 84 82 78 74 70 67 66 68 73 79 88 95 99 100 100 100 100 100 99 93 97
125 127 126 124 122 122 122 122 122 120 118 116 113 109 107 103 100 96 93 91 89 87 84 81 78 74 70 69 71 74 79 87 97 104 107 105 104 103 102 98 97 102 102
125 128 128 126 124 123 122 121 122 121 119 117 115 112 109 106 103 100 95 92 88 86 84 81 79 74 70 68 72 77 83 92 102 114 114 110 108 103 99 99 103 106 104
128 134 131 129 127 126 125 124 124 123 122 120 117 114 111 107 104 101 99 95 92 89 85 82 79 74 69 67 70 74 80 96 114 131 131 124 116 108 105 106 107 108 105
130 130 130 133 131 129 128 127 125 126 125 123 121 118 114 110 105 103 100 97 94 91 88 84 79 74 68 64 64 62 59 81 122 138 121 109 106 115 112 110 111 111 109
131 131 135 135 133 132 131 129 128 128 127 125 123 120 116 112 109 106 104 100 97 93 90 86 80 74 68 61 56 44 25 5 325 122 117 114 116 121 118 116 115 114 114
136 133 138 137 135 134 134 133 132 130 129 128 127 125 121 117 114 111 109 106 102 97 92 89 83 76 70 60 45 19 0 336 292 123 116 115 120 124 123 120 120 118 116
136 133 137 139 138 138 137 136 135 134 133 132 131 128 127 125 124 121 117 115 109 104 101 97 91 80 70 58 32 359 344 331 1 112 116 118 124 124 124 122 123 123 120
135 135 142 144 142 141 140 140 139 138 138 137 136 135 137 140 141 140 136 130 122 116 114 112 105 93 77 54 10 337 327 327 329 111 117 123 128 127 127 126 126 125 126
135 140 148 150 147 149 146 145 144 143 144 145 146 154 162 166 167 164 159 150 143 139 138 139 141 138 136 191 296 304 312 320 340 102 116 131 133 132 132 133 132 131 131
138 144 154 149 153 155 152 151 152 153 156 159 164 178 189 194 180 177 159 153 160 165 172 179 189 194 208 220 237 266 286 276 47 109 123 138 137 136 138 142 140 139 138
144 145 147 146 155 157 153 153 162 163 162 176 165 182 202 184 171 157 153 162 171 181 186 195 208 219 230 225 216 238 258 243 153 120 136 144 140 141 145 151 153 152 149
149 145 145 149 149 146 139 151 155 151 155 154 135 162 153 115 121 119 147 166 187 196 198 189 210 231 234 258 193 234 272 352 100 118 142 144 144 148 154 161 164 164 161
148 144 143 132 119 118 127 134 140 139 140 124 117 82 76 76 55 74 65 71 217 191 167 169 207 232 313 340 300 291 323 7 71 113 144 149 153 158 164 170 174 176 172
147 142 133 122 112 104 99 132 128 121 127 123 120 80 28 68 60 59 53 27 311 91 150 166 178 178 249 279 287 299 325 10 59 109 144 157 162 167 172 179 183 184 181
150 143 133 125 121 119 116 102 109 124 121 112 96 79 32 63 62 28 347 37 18 57 61 62 137 157 193 195 277 308 316 11 74 100 144 167 173 181 185 186 188 189 188
148 145 140 134 132 136 138 144 136 134 118 104 103 88 49 61 55 1 275 145 46 43 137 178 179 175 181 177 192 227 245 5 47 85 153 166 177 198 198 193 193 194 194
150 150 155 148 141 140 137 129 109 104 108 110 114 102 78 70 33 325 22 56 7 306 182 151 149 122 122 135 157 209 158 151 185 197 207 188 181 196 201 201 197 197 197
149 150 146 137 139 138 131 116 102 92 97 108 100 94 88 73 28 15 61 39 312 313 40 40 72 41 28 44 212 190 192 165 158 224 199 192 180 187 191 197 201 202 201
144 138 138 136 135 134 130 125 118 117 128 115 103 97 93 94 46 356 107 39 332 47 61 63 56 74 332 297 295 146 182 158 161 141 235 213 195 192 189 188 195 206 209
144 146 147 144 145 147 144 148 142 148 154 132 124 121 113 91 81 2 67 110 25 64 48 43 24 243 222 200 288 230 198 183 169 169 172 31 175 180 178 181 189 201 206
151 150 152 151 154 159 153 151 149 146 161 129 110 124 131 126 137 118 44 62 73 99 65 40 40 331 303 116 307 277 189 159 213 154 152 166 90 94 175 181 184 193 205
157 159 164 160 157 161 152 151 142 134 160 135 137 150 148 139 105 63 62 38 3 148 106 26 4 351 353 358 34 357 359 58 160 125 124 100 85 13 8 144 166 178 183
165 161 154 155 158 158 159 165 170 178 179 159 155 147 151 165 157 141 125 75 355 50 99 264 79 349 332 319 127 104 80 44 351 134 188 137 160 145 48 10 84 146 153
164 160 154 159 165 163 174 178 191 187 171 150 144 139 160 169 183 168 150 142 218 61 82 56 59 4 348 356 351 12 69 229 261 256 167 165 197 179 158 144 54 101 143
160 161 163 165 168 171 182 180 198 203 178 155 158 155 181 173 184 184 170 168 205 154 132 117 72 86 30 19 352 345 344 324 320 328 326 222 209 174 159 152 159 214 193
Height
1519 1522 1527 1530 1532 1535 1537 1539 1541 1542 1544 1545 1546 1547 1547 1548 1549 1550 1551 1552 1552 1553 1554 1554 1555 1555 1556 1556 1557 1558 1559 1560 1560 1561 1562 1562 1563 1564 1565 1566 1568 1569 1571
1517 1522 1527 1530 1533 1536 1538 1540 1542 1544 1545 1547 1548 1548 1549 1550 1551 1552 1553 1553 1554 1555 1556 1556 1557 1557 1557 1558 1558 1559 1560 1561 1562 1563 1564 1564 1565 1566 1567 1569 1570 1572 1573
1517 1523 1527 1531 1534 1537 1539 1541 1543 1545 1547 1548 1549 1550 1551 1552 1553 1553 1554 1555 1556 1557 1557 1558 1558 1559 1559 1560 1560 1561 1562 1563 1564 1564 1566 1567 1568 1569 1570 1571 1572 1574 1576
1519 1524 1528 1532 1535 1538 1540 1543 1545 1546 1548 1549 1550 1552 1553 1554 1554 1555 1556 1557 1557 1558 1559 1560 1560 1561 1561 1562 1562 1563 1564 1565 1566 1566 1567 1569 1570 1571 1572 1573 1574 1576 1578
1521 1524 1528 1532 1536 1539 1541 1544 1546 1547 1549 1550 1552 1553 1554 1555 1556 1557 1557 1558 1559 1560 1561 1561 1562 1563 1563 1564 1564 1565 1566 1567 1567 1568 1570 1571 1572 1573 1574 1575 1577 1578 1580
1522 1525 1529 1533 1537 1540 1542 1545 1547 1548 1550 1551 1553 1554 1555 1556 1557 1558 1559 1560 1560 1561 1562 1563 1564 1564 1565 1565 1566 1567 1568 1569 1569 1570 1571 1572 1573 1574 1576 1577 1579 1580 1582
1524 1526 1530 1534 1537 1540 1543 1545 1547 1549 1551 1552 1553 1555 1556 1557 1558 1559 1560 1561 1562 1562 1563 1564 1565 1566 1566 1567 1568 1569 1569 1570 1571 1572 1573 1574 1575 1576 1577 1579 1580 1582 1584
1524 1526 1531 1535 1538 1541 1544 1546 1548 1550 1551 1553 1554 1555 1557 1558 1559 1560 1561 1562 1563 1563 1564 1565 1566 1567 1568 1569 1569 1570 1571 1571 1572 1574 1574 1575 1576 1577 1578 1580 1581 1583 1585
1525 1527 1531 1535 1538 1541 1544 1546 1548 1550 1552 1553 1555 1556 1558 1559 1560 1561 1562 1562 1563 1564 1565 1566 1567 1567 1568 1569 1570 1571 1572 1573 1574 1574 1575 1576 1577 1578 1579 1581 1583 1584 1586
1525 1528 1532 1536 1539 1542 1544 1547 1548 1550 1552 1554 1555 1557 1558 1559 1560 1561 1562 1563 1564 1564 1565 1566 1567 1568 1569 1570 1571 1572 1573 1574 1574 1574 1575 1577 1578 1579 1580 1582 1584 1585 1587
1526 1530 1534 1537 1539 1542 1544 1547 1549 1550 1552 1554 1556 1557 1558 1559 1561 1562 1563 1563 1564 1565 1565 1566 1567 1568 1569 1570 1572 1573 1574 1574 1574 1574 1575 1578 1579 1580 1581 1583 1584 1586 1588
1527 1530 1534 1537 1540 1543 1545 1547 1549 1551 1553 1554 1556 1558 1559 1560 1561 1562 1563 1564 1564 1564 1565 1566 1567 1568 1569 1570 1571 1573 1574 1575 1575 1575 1576 1578 1579 1580 1582 1583 1585 1587 1588
1527 1530 1534 1537 1540 1543 1545 1547 1549 1552 1553 1555 1556 1558 1559 1560 1561 1562 1562 1563 1563 1564 1565 1565 1566 1567 1569 1570 1571 1572 1574 1575 1575 1575 1576 1578 1579 1580 1582 1583 1585 1587 1589
1525 1529 1533 1536 1539 1542 1545 1548 1550 1552 1553 1554 1556 1557 1558 1560 1560 1561 1562 1562 1563 1564 1564 1565 1566 1567 1568 1569 1570 1571 1573 1574 1574 1575 1576 1577 1579 1580 1582 1583 1585 1587 1589
1525 1528 1531 1535 1538 1541 1545 1548 1550 1552 1553 1554 1555 1556 1558 1558 1559 1559 1560 1561 1562 1563 1563 1564 1565 1566 1567 1568 1569 1570 1571 1573 1574 1574 1575 1577 1578 1580 1581 1583 1585 1586 1588
1523 1526 1529 1533 1537 1540 1544 1547 1549 1551 1553 1554 1554 1555 1556 1557 1557 1558 1559 1560 1561 1562 1562 1563 1564 1565 1566 1567 1568 1569 1570 1572 1573 1574 1575 1576 1578 1579 1581 1582 1584 1585 1587
1521 1524 1528 1531 1535 1540 1543 1547 1549 1551 1553 1553 1553 1554 1555 1556 1556 1557 1558 1559 1560 1561 1562 1563 1564 1564 1565 1566 1567 1568 1570 1571 1572 1573 1574 1575 1576 1578 1580 1581 1583 1584 1586
1518 1522 1527 1531 1534 1539 1543 1546 1549 1551 1552 1553 1553 1553 1554 1555 1555 1556 1558 1558 1559 1561 1562 1563 1563 1564 1565 1566 1567 1568 1569 1570 1571 1571 1572 1573 1575 1577 1578 1580 1581 1582 1584
1516 1521 1526 1529 1533 1538 1541 1545 1547 1550 1552 1553 1553 1553 1554 1554 1555 1556 1556 1557 1559 1560 1561 1562 1562 1563 1564 1565 1566 1567 1568 1569 1570 1571 1572 1572 1573 1575 1576 1577 1579 1580 1581
1515 1519 1524 1528 1533 1537 1541 1544 1547 1549 1551 1552 1552 1553 1554 1554 1555 1555 1556 1557 1558 1559 1560 1560 1561 1562 1563 1564 1566 1567 1568 1568 1569 1570 1571 1571 1572 1573 1574 1575 1577 1578 1579
1514 1519 1523 1527 1532 1536 1539 1543 1546 1549 1551 1552 1552 1552 1553 1554 1555 1555 1556 1557 1558 1558 1559 1560 1561 1562 1563 1564 1565 1566 1567 1568 1568 1569 1570 1570 1571 1572 1573 1574 1575 1576 1577
1513 1517 1521 1526 1530 1534 1539 1542 1545 1548 1550 1551 1552 1552 1553 1554 1555 1556 1556 1557 1557 1558 1558 1559 1560 1561 1563 1564 1565 1565 1566 1568 1568 1569 1569 1570 1571 1572 1572 1573 1573 1574 1575
1512 1516 1520 1525 1529 1533 1537 1541 1545 1547 1549 1551 1551 1552 1553 1554 1554 1555 1555 1556 1557 1558 1558 1559 1560 1561 1562 1564 1564 1565 1565 1566 1567 1569 1569 1570 1570 1571 1572 1572 1572 1573 1573
1511 1515 1519 1523 1528 1532 1536 1540 1543 1546 1548 1550 1550 1551 1552 1554 1554 1555 1555 1556 1557 1558 1558 1559 1559 1561 1562 1563 1564 1564 1565 1565 1567 1568 1569 1569 1570 1570 1571 1572 1572 1572 1572
1511 1515 1518 1523 1527 1531 1535 1539 1542 1545 1547 1549 1550 1551 1552 1553 1554 1555 1555 1556 1556 1557 1558 1558 1559 1560 1561 1561 1563 1564 1565 1565 1566 1568 1568 1569 1569 1569 1570 1570 1571 1571 1571
1510 1514 1518 1522 1526 1530 1534 1538 1541 1544 1546 1548 1549 1550 1551 1552 1553 1554 1555 1555 1556 1557 1557 1557 1558 1559 1560 1561 1562 1563 1564 1565 1566 1566 1567 1567 1568 1568 1568 1569 1569 1570 1570